Regional Weather Roundup
Issued by NWS

Home | Current Version | Previous Version | Graphics & Text | Print | Product List | Glossary Off
Versions: 1 2 3 4 5 6 7 8 9 10 11 12 13 14 15 16 17 18 19 20 21 22 23 24 25 26 27 28 29 30 31 32 33 34 35 36 37 38 39 40 41 42 43 44 45 46 47 48 49 50

000
ASUS43 KDTX 062101
RWRMI
MICHIGAN HOURLY REGIONAL WEATHER ROUNDUP
NATIONAL WEATHER SERVICE DETROIT/PONTIAC MI
400 PM EST SAT FEB 06 2016

NOTE: "FAIR" INDICATES FEW OR NO CLOUDS BELOW 12,000 FEET WITH NO
SIGNIFICANT WEATHER AND/OR OBSTRUCTION TO VISIBILITY.

MIZ047>049-052>055-059>063-066>070-074>076-081>083-062200-
SOUTHEAST LOWER MICHIGAN

CITY           SKY/WX    TMP DP  RH WIND       PRES   REMARKS
ADRIAN         SUNNY     36  22  56 W9G20     30.18F WCI  29
ALMA           PTSUNNY   35  26  70 SW13G18   30.12F WCI  26
ANN ARBOR      PTSUNNY   37  23  56 SW15      30.17R WCI  28
BAD AXE        MOSUNNY   36  20  53 SW15G26   30.10S WCI  27
CARO           PTSUNNY   36  21  55 SW8       30.11F WCI  30
DETROIT CITY   MOSUNNY   37  21  52 SW13      30.17S WCI  29
DETROIT        PTSUNNY   39  23  52 SW15      30.19S WCI  31
FLINT          PTSUNNY   38  19  46 SW13      30.14S WCI  30
GROSSE ILE     SUNNY     36  28  75 S14G20    30.18S WCI  27
HILLSDALE      SUNNY     36  19  50 W7        30.16S WCI  31
HOWELL         PTSUNNY   37  20  49 SW10G16   30.14S WCI  30

CITY           SKY/WX    TMP DP  RH WIND       PRES   REMARKS
JACKSON        SUNNY     36  19  50 SW10      30.15F WCI  28
LAMBERTVILLE   SUNNY     37  24  57 W8        30.20S WCI  31
LANSING        PTSUNNY   35  18  49 W16       30.16R WCI  25
LAPEER         CLOUDY    37  20  50 SW14G21   30.13S WCI  28
MASON          CLOUDY    35  20  54 SW6       30.15S WCI  30
MONROE         SUNNY     37  24  60 SW14      30.19S WCI  28
MT. CLEMENS    PTSUNNY   40  21  45 SW13      30.14S WCI  33
PONTIAC        CLOUDY    38  18  44 SW12      30.13S WCI  30
PORT HOPE        N/A     36  22  56 SW10G18   30.07F WCI  28
PORT HURON     CLOUDY    37  23  56 S10       30.15S WCI  30
TRI CITIES     CLOUDY    36  24  62 SW21      30.12F WCI  25
MIDLAND        PTSUNNY   35  22  59 SW8       30.10F WCI  29
TROY           PTSUNNY   39  22  51 SW10      30.17S WCI  32
SAGINAW HB     PTSUNNY   36  23  60 SW16      30.12S WCI  26
$$
MIZ043>046-050>051-056>058-064>065-071>073-077>080-062200-
SOUTHWEST LOWER MICHIGAN

CITY           SKY/WX    TMP DP  RH WIND       PRES   REMARKS
BATTLE CREEK   MOSUNNY   35  20  54 SW12      30.16F WCI  27
BENTON HARBOR  CLOUDY    37  26  64 SW12      30.18S WCI  29
BIG RAPIDS     CLOUDY    32  28  83 W7G20     30.10R WCI  26
COLDWATER      PTSUNNY   36  22  56 SW9       30.17S WCI  29
FREMONT        CLOUDY    32  27  81 SW10      30.12S WCI  24
HOLLAND        CLOUDY    34  26  72 SW13      30.17S WCI  25
GRAND RAPIDS   CLOUDY    34  24  67 SW17      30.16S WCI  23
IONIA          PTSUNNY   33  22  62 SW12G18   30.13F WCI  25
KALAMAZOO      CLOUDY    36  20  52 SW13      30.17S WCI  27
LUDINGTON      CLOUDY    32  27  81 W10       30.12S WCI  23
MARSHALL       MOSUNNY   35  21  55 SW8       30.16S WCI  29
MOUNT PLEASANT CLOUDY    35  24  62 SW14G23   30.10S WCI  26
MUSKEGON       CLOUDY    35  26  69 SW13      30.14S WCI  26
SOUTH HAVEN    CLOUDY    36  26  67 SW12G18   30.17S WCI  27
$$
MIZ016>042-062200-
NORTHERN LOWER MICHIGAN

CITY           SKY/WX    TMP DP  RH WIND       PRES   REMARKS
ALPENA         CLOUDY    31  23  72 W10       30.06R WCI  22
BEAVER ISLAND  CLOUDY    29  22  73 SW12G20   30.05R WCI  20
BELLAIRE       CLOUDY    30  25  81 SW6       30.09R WCI  24
CADILLAC       CLOUDY    29  26  86 SW10      30.06R WCI  20
CHARLEVOIX     CLOUDY    30  24  77 SW13G18   30.09S WCI  20
FRANKFORT      CLOUDY    31  25  78 SW12      30.09S WCI  22
GAYLORD        CLOUDY    27  24  89 W15       30.03R FOG     WCI  15
GRAYLING       CLOUDY    29  25  84 W8        30.06R WCI  21
HARBOR SPRINGS CLOUDY    30  23  75 SW13G21   30.05R WCI  20
HOUGHTON LAKE  CLOUDY    30  24  78 W10       30.07R WCI  21
MANISTEE       CLOUDY    30  23  74 W10       30.10S WCI  21
OSCODA         CLOUDY    34  23  63 W18       30.06R WCI  23
PELLSTON       CLOUDY    29  21  72 W13G20    30.05R WCI  19
ROGERS CITY    CLOUDY    31  22  68 W14G20    30.05S WCI  21
TRAVERSE CITY  CLOUDY    31  24  75 W7        30.07S WCI  24
$$
MIZ007>008-015-062200-
EASTERN UPPER MICHIGAN

CITY           SKY/WX    TMP DP  RH WIND       PRES   REMARKS
KINROSS        CLOUDY    28  25  86 W9        30.01R WCI  20
MACKINAC ISLAN CLOUDY    29  22  74 SW12G21   30.03R WCI  20
NEWBERRY       CLOUDY    29  20  69 W9        30.00S WCI  21
S. S. MARIE    LGT SNOW  29  22  75 W10       30.00R WCI  20
$$
MIZ004>006-011>014-085-062200-
CENTRAL UPPER MICHIGAN

CITY           SKY/WX    TMP DP  RH WIND       PRES   REMARKS
MANISTIQUE     PTSUNNY   30  21  68 SW8       30.02S WCI  23
ESCANABA       CLOUDY    30  19  64 W10       30.03S WCI  21
MENOMINEE      CLOUDY    30  21  69 SW9       30.05S WCI  22
SAWYER-GWINN   CLOUDY    30  18  59 SW8       29.96F WCI  23
$$
MIZ001>003-009>011-084-062200-
WESTERN UPPER MICHIGAN

CITY           SKY/WX    TMP DP  RH WIND       PRES   REMARKS
IRON MOUNTAIN  CLOUDY    30  19  63 SW5       29.98S WCI  25
HOUGHTON       CLOUDY    29  19  66 S8        29.92F WCI  21
COPPER HARBOR    N/A     27  24  89 S5        29.95F WCI  22
IRONWOOD       CLOUDY    34  21  60 S8        29.86F WCI  27
$$

ABBREVIATIONS USED IN REMARKS
   TC - TEMPERATURE IN CELSIUS
  WCI - WIND CHILL INDEX
   HX - HEAT INDEX
  VSB - VISIBILITY




USA.gov is the U.S. government's official web portal to all federal, state and local government web resources and services.